Portada
METAR-TAF:

METAR-TAF

Aeropuertos :

Passo Rolle, Italia

latitud: 46-18N, longitud: 011-47E, altitud: 2004 m

Observación

El informe se hizo hace 59 minutos, a las 16:55 UTC
Viento 17 kt del sureste con ráfagas de 29 kt
Temperatura -3°C
Humedad 93%
Presión 991 hPa
Visibilidad: 0100 m
poca nieve, niebla engelante

METAR: LIVR 041655Z 13017G29KT 0100 -SN FZFG VV/// M03/M04 Q0991 RMK MON INVIS VIS MIN 0100

Hora: 18:54 (17:54 UTC)


TAF: falta

Observaciones y pronósticos meteorológicos de más de 4000 aeropuertos (mensajes METAR y TAF).

Los puntos amarillos y rojos representan las estaciones disponibles.

Ponga el ratón en el punto deseado para ver el nombre de la estación.

Haga clic para ver las observaciones y los pronósticos meteorológicos.

Para cambiar el mapa : haga clic en los botones verdes con una cruz de color negro para hacer un zoom, en el botón verde con un guión para alejar o en las flechas verdes para mapas adyacentes.


METAR-TAF: